180P/NEAT (2023)

Japanese version
Home page
Updated on March 5, 2023

---------------------------------------------------------------------

* Profile

* Pictures

* Orbital Elements

Epoch 2023 Feb. 25.0 TT = JDT 2460000.5
T 2023 July 12.22496 TT                                 Rudenko
q   2.5008007            (2000.0)            P               Q
n   0.12960700     Peri.   94.67366     -0.95726275     -0.01671551
a   3.8670853      Node    84.56836     -0.10657062     -0.90769715
e   0.3533112      Incl.   16.86026     +0.26886934     -0.41929282
P   7.60
>From 923 observations 1955 May 14-2023 Feb. 26, mean residual 0".8.
     Nongravitational parameters A1 = +0.42, A2 = +0.0318.

* Magnitudes Graph

        m1 = -0.8 + 5 log d + 40 log r

---------------------------------------------------------------------

The orbital elements are published on M.P.E.C. 2023-D72.
The magnitudes graphs are made with Comet for Windows.

---------------------------------------------------------------------

Copyright(C) Seiichi Yoshida (comet@aerith.net). All rights reserved.